This demonstration page uses our WeatherBlox Daily Observations layout. Learn more.

Left ArrowRight Arrow

39.01783, -85.05884

Hourly Observations for April 11, 2020

Temp ( °F °C ) Dew Point ( °F °C ) Humidity (%) Winds ( mph kmh ) Pressure ( in mb ) Visibility ( mi km ) Precip ( " mm )
12:52 am 00:52 Partly Cloudy 39 3.9 27 -2.8 62 62 SSW 7 11 30.02 1017 10 16 N/A
1:52 am 01:52 Partly Cloudy 38 3.3 27 -2.8 65 65 SSW 7 11 30.02 1017 10 16 N/A
2:52 am 02:52 Partly Cloudy 37 2.8 26 -3.3 65 65 SSW 6 9 30.01 1016 10 16 N/A
3:52 am 03:52 Partly Cloudy 37 2.8 26 -3.3 65 65 SW 5 7 30.02 1017 10 16 N/A
4:52 am 04:52 Cloudy 38 3.3 27 -2.8 65 65 SSW 5 7 30.02 1017 10 16 N/A
5:52 am 05:52 Cloudy 40 4.4 28 -2.2 63 63 SSW 5 7 30.01 1016 10 16 N/A
6:52 am 06:52 Cloudy 40 4.4 28 -2.2 63 63 SW 6 9 30.03 1017 10 16 N/A
7:52 am 07:52 Cloudy 41 5 29 -1.7 62 62 SW 3 6 30.04 1017 10 16 N/A
8:52 am 08:52 Cloudy 42 5.6 30 -1.1 62 62 SSW 6 9 30.06 1018 10 16 N/A
9:52 am 09:52 Mostly Cloudy 46 7.8 29 -1.7 51 51 SW 6 9 30.06 1018 10 16 N/A
10:52 am 10:52 Mostly Cloudy 51 10.6 29 -1.7 43 43 WSW 8 13 30.06 1018 10 16 N/A
11:52 am 11:52 Partly Cloudy 54 12.2 27 -2.8 35 35 SSW 9 15 30.05 1018 10 16 N/A
12:52 pm 12:52 Mostly Cloudy 56 13.3 27 -2.8 33 33 S 10 17 30.03 1017 10 16 N/A
1:52 pm 13:52 Mostly Cloudy 57 13.9 27 -2.8 32 32 SSE 14 22 30.01 1016 10 16 N/A
2:52 pm 14:52 Mostly Cloudy 59 15 28 -2.2 31 31 S 9 15 29.98 1015 10 16 N/A
3:52 pm 15:52 Mostly Cloudy 60 15.6 25 -3.9 26 26 S 10 17 29.94 1014 10 16 N/A
4:52 pm 16:52 Mostly Cloudy 60 15.6 22 -5.6 23 23 SSW 14 22 29.93 1014 10 16 N/A
5:52 pm 17:52 Cloudy 58 14.4 21 -6.1 24 24 SSW 12 19 29.94 1014 10 16 N/A
6:52 pm 18:52 Cloudy 58 14.4 23 -5 26 26 S 7 11 29.92 1013 10 16 N/A
7:52 pm 19:52 Mostly Cloudy 55 12.8 27 -2.8 34 34 S 7 11 29.91 1013 10 16 N/A
8:52 pm 20:52 Cloudy 55 12.8 27 -2.8 34 34 SSE 12 19 29.90 1013 10 16 N/A
9:52 pm 21:52 Mostly Cloudy 53 11.7 29 -1.7 40 40 SSE 8 13 29.89 1012 10 16 N/A
10:52 pm 22:52 Cloudy with Light Rain 51 10.6 32 undefined 48 48 S 8 13 29.88 1012 10 16 0.00 0.00
11:52 pm 23:52 Cloudy with Light Rain 51 10.6 33 0.6 50 50 S 7 11 29.89 1012 9 14 0.00 0.00

Powered by AerisWeather